Vancouver, WA
on Sunday, December 30, 2012

Sunday
Previous Day Next Day
Daily Summary
 ActualAverageRecord
Temperature
Mean Temperature °F 40°F  
Max Temperature 44°F 46°F 60°F (1917)
Min Temperature 23°F 34°F 21°F (1927)
Degree Days
Heating Degree Days 31    
Month to date heating degree days 672  
Since 1 July heating degree days 1513  
Cooling Degree Days 0    
Month to date cooling degree days 0  
Year to date cooling degree days 398  
Moisture
Dew Point 29°F   
Average Humidity 77    
Maximum Humidity 92    
Minimum Humidity 62    
Precipitation
Precipitation 0.00 in 0.21 in 1.46 in (1983)
Month to date precipitation 7.66 6.57  
Year to date precipitation 45.98 38.94  
Snow
Snow 0.00 in in in ()
Month to date snowfall 0.0  
Snow Depth 0.00 in   
Wind
Wind Speed 1 mph   
Max Wind Speed 6 mph   
Max Gust Speed 8 mph   
Visibility 9 miles   
Events     

Key: T is trace of precipitation, MM is missing value
Source: NWS Daily Summary
Time(PST)TemperatureDew PointHumidity Pressure Visibility Wind DirectionWind SpeedGust SpeedPrecipitationEvents Conditions
12:53 AM 37.0°F 34.0°F 89% 30.24 in 10.0 miles Calm Calm - N/A   Overcast
1:20 AM 37.4°F 32.0°F 81% 30.24 in 10.0 miles ESE 4.6 mph - N/A   Overcast
1:53 AM 37.0°F 32.0°F 82% 30.25 in 10.0 miles Calm Calm - N/A   Overcast
2:53 AM 37.0°F 32.0°F 82% 30.26 in 10.0 miles Calm Calm - N/A   Overcast
3:49 AM 37.4°F 32.0°F 81% 30.27 in 10.0 miles Calm Calm - N/A   Overcast
3:53 AM 37.0°F 33.1°F 86% 30.27 in 10.0 miles Calm Calm - N/A   Overcast
4:53 AM 35.1°F 32.0°F 89% 30.26 in 10.0 miles Calm Calm - N/A   Overcast
5:48 AM 32.0°F 30.2°F 93% 30.27 in 10.0 miles Calm Calm - N/A   Mostly Cloudy
5:53 AM 30.9°F 28.9°F 92% 30.27 in 10.0 miles Calm Calm - N/A   Mostly Cloudy
6:05 AM 30.2°F 28.4°F 93% 30.27 in 9.0 miles Calm Calm - N/A   Scattered Clouds
6:53 AM 30.0°F 28.0°F 92% 30.28 in 7.0 miles Calm Calm - N/A   Clear
7:30 AM 30.2°F 26.6°F 86% 30.29 in 5.0 miles Calm Calm - N/A   Scattered Clouds
7:53 AM 28.0°F 26.1°F 92% 30.30 in 3.0 miles Calm Calm - N/A   Partly Cloudy
8:36 AM 28.4°F 26.6°F 93% 30.31 in 3.0 miles Calm Calm - N/A   Mostly Cloudy
8:48 AM 30.2°F 28.4°F 93% 30.31 in 4.0 miles NNE 3.5 mph - N/A   Mostly Cloudy
8:53 AM 33.1°F 30.0°F 89% 30.32 in 5.0 miles Calm Calm - N/A   Mostly Cloudy
9:02 AM 32.0°F 30.2°F 93% 30.31 in 6.0 miles Calm Calm - N/A   Partly Cloudy
9:53 AM 36.0°F 33.1°F 89% 30.33 in 8.0 miles Calm Calm - N/A   Clear
10:53 AM 37.0°F 33.1°F 86% 30.33 in 10.0 miles WNW 3.5 mph - N/A   Clear
11:53 AM 39.0°F 33.1°F 79% 30.31 in 10.0 miles Calm Calm - N/A   Clear
12:53 PM 39.9°F 33.1°F 77% 30.29 in 10.0 miles WSW 4.6 mph - N/A   Clear
1:53 PM 43.0°F 30.9°F 62% 30.28 in 10.0 miles Calm Calm - N/A   Clear
2:53 PM 43.0°F 30.9°F 62% 30.29 in 10.0 miles Variable 3.5 mph - N/A   Clear
3:53 PM 42.1°F 30.9°F 65% 30.28 in 10.0 miles Calm Calm - N/A   Clear
4:53 PM 37.9°F 28.0°F 68% 30.28 in 10.0 miles Calm Calm - N/A   Clear
5:53 PM 33.1°F 27.0°F 78% 30.28 in 10.0 miles Calm Calm - N/A   Clear
6:53 PM 30.0°F 25.0°F 82% 30.27 in 10.0 miles Calm Calm - N/A   Clear
7:53 PM 30.0°F 24.1°F 79% 30.28 in 10.0 miles Calm Calm - N/A   Clear
8:53 PM 26.1°F 21.0°F 81% 30.28 in 10.0 miles Calm Calm - N/A   Clear
9:53 PM 28.0°F 23.0°F 81% 30.30 in 10.0 miles Calm Calm - N/A   Clear
10:53 PM 25.0°F 21.9°F 88% 30.31 in 9.0 miles Calm Calm - N/A   Clear
11:53 PM 23.0°F 21.0°F 92% 30.31 in 9.0 miles Calm Calm - N/A   Clear
Moon Phase
Dec. 30 Jan. 04 Jan. 11 Jan. 18 Jan. 26
Sunrise:07:51 AM (PST) Moon Rise:07:21 PM (PST)12/30
Sunset:04:36 PM (PST) Moon Set:08:55 AM (PST)12/30

Copyright © 2014 The Weather Underground, Inc.